Time,TemperatureF,DewpointF,PressureIn,WindDirection,WindDirectionDegrees,WindSpeedMPH,WindSpeedGustMPH,Humidity,HourlyPrecipIn,Conditions,Clouds,dailyrainin,SoftwareType,DateUTC
2013-02-20 00:01:00,23.0,16.0,-100.00,NE,35,6.0,9.0,75,-99.99,,,0.00,,2013-02-20 07:01:00,
2013-02-20 00:11:00,22.0,16.0,-100.00,East,80,3.0,6.0,76,-99.99,,,0.00,,2013-02-20 07:11:00,
2013-02-20 00:21:00,22.0,16.0,-100.00,East,80,3.0,6.0,76,-99.99,,,0.00,,2013-02-20 07:21:00,
2013-02-20 00:31:00,22.0,16.0,-100.00,East,80,3.0,6.0,76,-99.99,,,0.00,,2013-02-20 07:31:00,
2013-02-20 00:41:00,22.0,16.0,-100.00,East,80,3.0,6.0,76,-99.99,,,0.00,,2013-02-20 07:41:00,
2013-02-20 00:51:00,22.0,16.0,-100.00,ESE,115,4.0,5.0,77,-99.99,,,0.00,,2013-02-20 07:51:00,
2013-02-20 01:11:00,21.0,16.0,-100.00,SE,130,1.0,4.0,78,-99.99,,,0.00,,2013-02-20 08:11:00,
2013-02-20 01:21:00,21.0,16.0,-100.00,SE,130,1.0,4.0,78,-99.99,,,0.00,,2013-02-20 08:21:00,
2013-02-20 01:31:00,21.0,16.0,-100.00,SE,130,1.0,4.0,78,-99.99,,,0.00,,2013-02-20 08:31:00,
2013-02-20 01:41:00,21.0,16.0,-100.00,SE,130,1.0,4.0,78,-99.99,,,0.00,,2013-02-20 08:41:00,
2013-02-20 01:52:00,21.0,15.0,-100.00,South,170,1.0,2.0,79,-99.99,,,0.00,,2013-02-20 08:52:00,
2013-02-20 02:01:00,21.0,15.0,-100.00,South,170,1.0,2.0,79,-99.99,,,0.00,,2013-02-20 09:01:00,
2013-02-20 02:11:00,21.0,16.0,-100.00,NW,315,0.0,1.0,80,-99.99,,,0.00,,2013-02-20 09:11:00,
2013-02-20 02:21:00,21.0,16.0,-100.00,NW,315,0.0,1.0,80,-99.99,,,0.00,,2013-02-20 09:21:00,
2013-02-20 02:31:00,21.0,16.0,-100.00,NW,315,0.0,1.0,80,-99.99,,,0.00,,2013-02-20 09:31:00,
2013-02-20 02:41:00,21.0,16.0,-100.00,NW,315,0.0,1.0,80,-99.99,,,0.00,,2013-02-20 09:41:00,
2013-02-20 02:51:00,21.0,16.0,-100.00,South,170,0.0,1.0,80,-99.99,,,0.00,,2013-02-20 09:51:00,
2013-02-20 03:01:00,21.0,16.0,-100.00,South,170,0.0,1.0,80,-99.99,,,0.00,,2013-02-20 10:01:00,
2013-02-20 03:12:00,21.0,16.0,-100.00,SE,145,0.0,1.0,80,-99.99,,,0.00,,2013-02-20 10:12:00,
2013-02-20 03:21:00,21.0,16.0,-100.00,SE,145,0.0,1.0,80,-99.99,,,0.00,,2013-02-20 10:21:00,
2013-02-20 03:31:00,21.0,16.0,-100.00,SE,145,0.0,1.0,80,-99.99,,,0.00,,2013-02-20 10:31:00,
2013-02-20 03:41:00,21.0,16.0,-100.00,SE,145,0.0,1.0,80,-99.99,,,0.00,,2013-02-20 10:41:00,
2013-02-20 03:51:00,22.0,16.0,-100.00,North,-999,0.0,0.0,80,-99.99,,,0.00,,2013-02-20 10:51:00,
2013-02-20 04:02:00,22.0,16.0,-100.00,North,-999,0.0,0.0,80,-99.99,,,0.00,,2013-02-20 11:02:00,
2013-02-20 04:11:00,22.0,17.0,-100.00,SW,230,0.0,3.0,79,-99.99,,,0.00,,2013-02-20 11:11:00,
2013-02-20 04:21:00,22.0,17.0,-100.00,SW,230,0.0,3.0,79,-99.99,,,0.00,,2013-02-20 11:21:00,
2013-02-20 04:32:00,22.0,17.0,-100.00,SW,230,0.0,3.0,79,-99.99,,,0.00,,2013-02-20 11:32:00,
2013-02-20 04:41:00,22.0,17.0,-100.00,SW,230,0.0,3.0,79,-99.99,,,0.00,,2013-02-20 11:41:00,
2013-02-20 04:52:00,21.0,16.0,-100.00,SSE,150,0.0,1.0,79,-99.99,,,0.00,,2013-02-20 11:52:00,
2013-02-20 05:01:00,21.0,16.0,-100.00,SSE,150,0.0,1.0,79,-99.99,,,0.00,,2013-02-20 12:01:00,
2013-02-20 05:12:00,20.0,15.0,-100.00,ESE,110,1.0,2.0,80,-99.99,,,0.00,,2013-02-20 12:12:00,
2013-02-20 05:21:00,20.0,15.0,-100.00,ESE,110,1.0,2.0,80,-99.99,,,0.00,,2013-02-20 12:21:00,
2013-02-20 05:31:00,20.0,15.0,-100.00,ESE,110,1.0,2.0,80,-99.99,,,0.00,,2013-02-20 12:31:00,
2013-02-20 05:42:00,20.0,15.0,-100.00,ESE,110,1.0,2.0,80,-99.99,,,0.00,,2013-02-20 12:42:00,
2013-02-20 05:52:00,19.0,14.0,-100.00,South,170,4.0,4.0,82,-99.99,,,0.00,,2013-02-20 12:52:00,
2013-02-20 06:01:00,19.0,14.0,-100.00,South,170,4.0,4.0,82,-99.99,,,0.00,,2013-02-20 13:01:00,
2013-02-20 06:11:00,19.0,14.0,-100.00,South,170,4.0,4.0,82,-99.99,,,0.00,,2013-02-20 13:11:00,
2013-02-20 07:32:00,18.0,14.0,-100.00,ESE,105,0.0,3.0,85,-99.99,,,0.00,,2013-02-20 14:32:00,
2013-02-20 07:42:00,18.0,14.0,-100.00,ESE,105,0.0,3.0,85,-99.99,,,0.00,,2013-02-20 14:42:00,
2013-02-20 07:52:00,19.0,15.0,-100.00,ESE,115,3.0,5.0,86,-99.99,,,0.00,,2013-02-20 14:52:00,
2013-02-20 08:01:00,19.0,15.0,-100.00,ESE,115,3.0,5.0,86,-99.99,,,0.00,,2013-02-20 15:01:00,
2013-02-20 08:11:00,19.0,16.0,-100.00,East,90,3.0,4.0,86,-99.99,,,0.00,,2013-02-20 15:11:00,
2013-02-20 08:22:00,19.0,16.0,-100.00,East,90,3.0,4.0,86,-99.99,,,0.00,,2013-02-20 15:22:00,
2013-02-20 08:32:00,19.0,16.0,-100.00,East,90,3.0,4.0,86,-99.99,,,0.00,,2013-02-20 15:32:00,
2013-02-20 08:41:00,19.0,16.0,-100.00,East,90,3.0,4.0,86,-99.99,,,0.00,,2013-02-20 15:41:00,
2013-02-20 08:51:00,20.0,17.0,-100.00,ESE,115,0.0,3.0,86,-99.99,,,0.00,,2013-02-20 15:51:00,
2013-02-20 09:01:00,20.0,17.0,-100.00,ESE,115,0.0,3.0,86,-99.99,,,0.00,,2013-02-20 16:01:00,
2013-02-20 09:11:00,22.0,17.0,-100.00,ESE,110,3.0,5.0,80,-99.99,,,0.00,,2013-02-20 16:11:00,
2013-02-20 09:21:00,22.0,17.0,-100.00,ESE,110,3.0,5.0,80,-99.99,,,0.00,,2013-02-20 16:21:00,
2013-02-20 09:32:00,22.0,17.0,-100.00,ESE,110,3.0,5.0,80,-99.99,,,0.00,,2013-02-20 16:32:00,
2013-02-20 09:41:00,22.0,17.0,-100.00,ESE,110,3.0,5.0,80,-99.99,,,0.00,,2013-02-20 16:41:00,
2013-02-20 09:51:00,23.0,16.0,-100.00,ENE,70,1.0,4.0,73,-99.99,,,0.00,,2013-02-20 16:51:00,
2013-02-20 10:01:00,23.0,16.0,-100.00,ENE,70,1.0,4.0,73,-99.99,,,0.00,,2013-02-20 17:01:00,
2013-02-20 10:11:00,24.0,16.0,-100.00,ESE,110,4.0,6.0,69,-99.99,,,0.00,,2013-02-20 17:11:00,
2013-02-20 10:21:00,24.0,16.0,-100.00,ESE,110,4.0,6.0,69,-99.99,,,0.00,,2013-02-20 17:21:00,
2013-02-20 10:32:00,24.0,16.0,-100.00,ESE,110,4.0,6.0,69,-99.99,,,0.00,,2013-02-20 17:32:00,
2013-02-20 10:41:00,24.0,16.0,-100.00,ESE,110,4.0,6.0,69,-99.99,,,0.00,,2013-02-20 17:41:00,
2013-02-20 10:52:00,25.0,16.0,-100.00,ENE,60,6.0,9.0,68,-99.99,,,0.00,,2013-02-20 17:52:00,
2013-02-20 11:02:00,25.0,16.0,-100.00,ENE,60,6.0,9.0,68,-99.99,,,0.00,,2013-02-20 18:02:00,
2013-02-20 11:11:00,26.0,16.0,-100.00,ENE,75,3.0,9.0,63,-99.99,,,0.00,,2013-02-20 18:11:00,
2013-02-20 11:21:00,26.0,16.0,-100.00,ENE,75,3.0,9.0,63,-99.99,,,0.00,,2013-02-20 18:21:00,
2013-02-20 11:31:00,26.0,16.0,-100.00,ENE,75,3.0,9.0,63,-99.99,,,0.00,,2013-02-20 18:31:00,
2013-02-20 11:41:00,26.0,16.0,-100.00,ENE,75,3.0,9.0,63,-99.99,,,0.00,,2013-02-20 18:41:00,
2013-02-20 11:51:00,27.0,15.0,-100.00,NE,45,8.0,12.0,60,-99.99,,,0.00,,2013-02-20 18:51:00,
2013-02-20 12:01:00,27.0,15.0,-100.00,NE,45,8.0,12.0,60,-99.99,,,0.00,,2013-02-20 19:01:00,
2013-02-20 12:11:00,29.0,15.0,-100.00,ENE,60,10.0,13.0,55,-99.99,,,0.00,,2013-02-20 19:11:00,
2013-02-20 12:21:00,29.0,15.0,-100.00,ENE,60,10.0,13.0,55,-99.99,,,0.00,,2013-02-20 19:21:00,
2013-02-20 12:31:00,29.0,15.0,-100.00,ENE,60,10.0,13.0,55,-99.99,,,0.00,,2013-02-20 19:31:00,
2013-02-20 12:41:00,29.0,15.0,-100.00,ENE,60,10.0,13.0,55,-99.99,,,0.00,,2013-02-20 19:41:00,
2013-02-20 12:51:00,30.0,15.0,-100.00,ENE,60,8.0,14.0,53,-99.99,,,0.00,,2013-02-20 19:51:00,
2013-02-20 13:01:00,30.0,15.0,-100.00,ENE,60,8.0,14.0,53,-99.99,,,0.00,,2013-02-20 20:01:00,
2013-02-20 13:11:00,30.0,15.0,-100.00,ENE,60,11.0,16.0,52,-99.99,,,0.00,,2013-02-20 20:11:00,
2013-02-20 13:21:00,30.0,15.0,-100.00,ENE,60,11.0,16.0,52,-99.99,,,0.00,,2013-02-20 20:21:00,
2013-02-20 13:31:00,30.0,15.0,-100.00,ENE,60,11.0,16.0,52,-99.99,,,0.00,,2013-02-20 20:31:00,
2013-02-20 13:41:00,30.0,15.0,-100.00,ENE,60,11.0,16.0,52,-99.99,,,0.00,,2013-02-20 20:41:00,
2013-02-20 13:51:00,30.0,14.0,-100.00,NE,40,11.0,14.0,51,-99.99,,,0.00,,2013-02-20 20:51:00,
2013-02-20 14:01:00,30.0,14.0,-100.00,NE,40,11.0,14.0,51,-99.99,,,0.00,,2013-02-20 21:01:00,
2013-02-20 14:11:00,32.0,14.0,-100.00,ESE,115,10.0,16.0,47,-99.99,,,0.00,,2013-02-20 21:11:00,
2013-02-20 14:21:00,32.0,14.0,-100.00,ESE,115,10.0,16.0,47,-99.99,,,0.00,,2013-02-20 21:21:00,
2013-02-20 14:31:00,32.0,14.0,-100.00,ESE,115,10.0,16.0,47,-99.99,,,0.00,,2013-02-20 21:31:00,
2013-02-20 14:41:00,32.0,14.0,-100.00,ESE,115,10.0,16.0,47,-99.99,,,0.00,,2013-02-20 21:41:00,
2013-02-20 14:51:00,32.0,13.0,-100.00,ESE,115,9.0,12.0,46,-99.99,,,0.00,,2013-02-20 21:51:00,
2013-02-20 15:01:00,32.0,13.0,-100.00,ESE,115,9.0,12.0,46,-99.99,,,0.00,,2013-02-20 22:01:00,
2013-02-20 15:11:00,32.0,13.0,-100.00,East,100,8.0,11.0,45,-99.99,,,0.00,,2013-02-20 22:11:00,
2013-02-20 15:21:00,32.0,13.0,-100.00,East,100,8.0,11.0,45,-99.99,,,0.00,,2013-02-20 22:21:00,
2013-02-20 15:31:00,32.0,13.0,-100.00,East,100,8.0,11.0,45,-99.99,,,0.00,,2013-02-20 22:31:00,
2013-02-20 15:41:00,32.0,13.0,-100.00,East,100,8.0,11.0,45,-99.99,,,0.00,,2013-02-20 22:41:00,
2013-02-20 15:51:00,32.0,12.0,-100.00,ENE,70,9.0,13.0,43,-99.99,,,0.00,,2013-02-20 22:51:00,
2013-02-20 16:01:00,32.0,12.0,-100.00,ENE,70,9.0,13.0,43,-99.99,,,0.00,,2013-02-20 23:01:00,
2013-02-20 16:12:00,31.0,11.0,-100.00,ESE,115,12.0,15.0,43,-99.99,,,0.00,,2013-02-20 23:12:00,
2013-02-20 16:22:00,31.0,11.0,-100.00,ESE,115,12.0,15.0,43,-99.99,,,0.00,,2013-02-20 23:22:00,
2013-02-20 16:31:00,31.0,11.0,-100.00,ESE,115,12.0,15.0,43,-99.99,,,0.00,,2013-02-20 23:31:00,
2013-02-20 16:42:00,31.0,11.0,-100.00,ESE,115,12.0,15.0,43,-99.99,,,0.00,,2013-02-20 23:42:00,
2013-02-20 16:52:00,30.0,11.0,-100.00,East,85,12.0,15.0,44,-99.99,,,0.00,,2013-02-20 23:52:00,
2013-02-20 17:02:00,30.0,11.0,-100.00,East,85,12.0,15.0,44,-99.99,,,0.00,,2013-02-21 00:02:00,
2013-02-20 17:11:00,29.0,11.0,-100.00,East,100,11.0,14.0,45,-99.99,,,0.00,,2013-02-21 00:11:00,
2013-02-20 17:21:00,29.0,11.0,-100.00,East,100,11.0,14.0,45,-99.99,,,0.00,,2013-02-21 00:21:00,
2013-02-20 17:32:00,29.0,11.0,-100.00,East,100,11.0,14.0,45,-99.99,,,0.00,,2013-02-21 00:32:00,
2013-02-20 17:41:00,29.0,11.0,-100.00,East,100,11.0,14.0,45,-99.99,,,0.00,,2013-02-21 00:41:00,
2013-02-20 17:52:00,29.0,11.0,-100.00,ESE,110,8.0,14.0,46,-99.99,,,0.00,,2013-02-21 00:52:00,
2013-02-20 18:01:00,29.0,11.0,-100.00,ESE,110,8.0,14.0,46,-99.99,,,0.00,,2013-02-21 01:01:00,
2013-02-20 18:11:00,28.0,11.0,-100.00,ESE,110,7.0,11.0,48,-99.99,,,0.00,,2013-02-21 01:11:00,
2013-02-20 18:21:00,28.0,11.0,-100.00,ESE,110,7.0,11.0,48,-99.99,,,0.00,,2013-02-21 01:21:00,
2013-02-20 18:32:00,28.0,11.0,-100.00,ESE,110,7.0,11.0,48,-99.99,,,0.00,,2013-02-21 01:32:00,
2013-02-20 18:41:00,28.0,11.0,-100.00,ESE,110,7.0,11.0,48,-99.99,,,0.00,,2013-02-21 01:41:00,
2013-02-20 18:51:00,27.0,10.0,-100.00,ESE,120,6.0,10.0,49,-99.99,,,0.00,,2013-02-21 01:51:00,
2013-02-20 19:01:00,27.0,10.0,-100.00,ESE,120,6.0,10.0,49,-99.99,,,0.00,,2013-02-21 02:01:00,
2013-02-20 19:11:00,27.0,11.0,-100.00,East,100,7.0,8.0,50,-99.99,,,0.00,,2013-02-21 02:11:00,
2013-02-20 19:21:00,27.0,11.0,-100.00,East,100,7.0,8.0,50,-99.99,,,0.00,,2013-02-21 02:21:00,
2013-02-20 19:32:00,27.0,11.0,-100.00,East,100,7.0,8.0,50,-99.99,,,0.00,,2013-02-21 02:32:00,
2013-02-20 19:42:00,27.0,11.0,-100.00,East,100,7.0,8.0,50,-99.99,,,0.00,,2013-02-21 02:42:00,
2013-02-20 20:01:00,26.0,11.0,-100.00,East,95,7.0,9.0,51,-99.99,,,0.00,,2013-02-21 03:01:00,
2013-02-20 20:11:00,26.0,11.0,-100.00,ESE,105,9.0,13.0,52,-99.99,,,0.00,,2013-02-21 03:11:00,
2013-02-20 20:21:00,26.0,11.0,-100.00,ESE,105,9.0,13.0,52,-99.99,,,0.00,,2013-02-21 03:21:00,
2013-02-20 20:31:00,26.0,11.0,-100.00,ESE,105,9.0,13.0,52,-99.99,,,0.00,,2013-02-21 03:31:00,
2013-02-20 20:41:00,26.0,11.0,-100.00,ESE,105,9.0,13.0,52,-99.99,,,0.00,,2013-02-21 03:41:00,
2013-02-20 23:51:00,23.0,13.0,-100.00,ENE,60,4.0,6.0,65,-99.99,,,0.00,,2013-02-21 06:51:00,